Flag for Iceland Weather past 2 weeks in Reykjavik, Iceland

Now
34 °F

Mostly cloudy.


Feels Like: 23 °F
Forecast: 33 / 41 °F
Wind: 16 mph from East

Location: Reykjavik Airport

Current Time: Oct 22, 2014 at 4:08:32 AM

Latest Report: Oct 22, 2014 at 3:00 AM


Visibility: N/A

Pressure: 29.39 "Hg

Humidity: 65%

Dew point: 23 °F

Location of ReykjavikLocation

Historic Weather in Reykjavik — Graph

°F

Reykjavik temperature yesterday

Maximum temperature yesterday: 34 °F (at 3:00 AM)
Minimum temperature yesterday: 28 °F (at 7:00 AM)
Average temperature yesterday: 31 °F

Past Weeks' High & Low Weather Summary

 TemperatureHumidityPressure
High59 °F (Oct 7, 3:00 PM)93% (Oct 13, 4:00 AM)30.09 "Hg (Oct 13, 4:00 AM)
Low27 °F (Oct 13, 5:00 AM)40% (Oct 16, 1:00 PM)28.88 "Hg (Oct 20, 8:00 AM)
Average40 °F68%29.75 "Hg
* Reported Oct 7 2:00 AM — Oct 22 2:00 AM, Reykjavik, Weather by CustomWeather, © 2014

Note: Actual official high and low records may vary slightly from our data, if they occured in-between our weather recording intervals... More about our weather records

Advertising

Reykjavik weather history for previous 24 hours

 ConditionsComfort  
Time TempWeatherWind HumidityBarometerVisibility
2:00 AM
Oct 22
32 °FPartly cloudy.16 mph69%29.45 "HgN/A
1:00 AM32 °FPassing clouds.17 mph69%29.47 "HgN/A
12:00 AM32 °FPassing clouds.16 mph69%29.50 "HgN/A
11:00 PM
Oct 21
32 °FOvercast.16 mph75%29.53 "HgN/A
10:00 PM32 °FPassing clouds.16 mph75%29.56 "HgN/A
9:00 PM30 °FPassing clouds.14 mph80%29.59 "HgN/A
8:00 PM30 °FPassing clouds.9 mph75%29.62 "HgN/A
7:00 PM30 °FPassing clouds.9 mph75%29.62 "HgN/A
6:00 PM30 °FPassing clouds.8 mph75%29.62 "HgN/A
5:00 PM32 °FScattered clouds.7 mph69%29.62 "HgN/A
4:00 PM32 °FPartly sunny.3 mph75%29.62 "HgN/A
3:00 PM32 °FPartly sunny.5 mph69%29.62 "HgN/A
2:00 PM32 °FPassing clouds.6 mph69%29.62 "HgN/A
1:00 PM30 °FSunny.5 mph75%29.62 "Hg10 mi
12:00 PM30 °FScattered clouds.5 mph75%29.59 "HgN/A
11:00 AM30 °FPartly sunny.6 mph80%29.56 "HgN/A
10:00 AM30 °FSunny.5 mph80%29.56 "Hg10 mi
9:00 AM30 °FSnow flurries. Passing clouds.7 mph80%29.53 "HgN/A
8:00 AM28 °FScattered showers. Partly cloudy.8 mph93%29.50 "HgN/A
7:00 AM28 °FLight snow. Mostly cloudy.8 mph93%29.50 "HgN/A
6:00 AM32 °FSnow. Mostly cloudy.1 mph93%29.47 "Hg1 mi
5:00 AM32 °FSnow. Mostly cloudy.7 mph93%29.45 "Hg1 mi
4:00 AM34 °FSnow. Dense fog.7 mph87%29.45 "Hg1 mi
Weather by CustomWeather, © 2014

See weather overviewHow to use our weather pages